SHT23A EGLL-EGJB

Flight info

Callsign SHT23A
Flight time N/A
Altitude 21000
Route GASGU2J GASGU N866 SAM/N0383F200 N63 LELNA LELNA1V
Aircraft A319/M-SDE3FGHIRWY/LB1

Departure

Time N/A
Airport London Heathrow Airport (EGLL)

Arrival

Time 2026-04-21 15:56
Airport Guernsey Airport (EGJB)
Time Latitude Longitude Altitude Speed Heading
2026-04-21 15:41 50.09940 -2.01665 21208 ft 400 kts 210°
2026-04-21 15:41 50.07425 -2.03534 21176 ft 400 kts 211°
2026-04-21 15:41 50.04925 -2.05444 21187 ft 400 kts 211°
2026-04-21 15:42 50.02436 -2.07377 21191 ft 400 kts 211°
2026-04-21 15:42 49.99974 -2.09379 21194 ft 397 kts 216°
2026-04-21 15:42 49.97783 -2.11843 21198 ft 391 kts 226°
2026-04-21 15:42 49.95881 -2.14822 21204 ft 386 kts 233°
2026-04-21 15:43 49.94078 -2.17988 21195 ft 386 kts 233°
2026-04-21 15:43 49.92296 -2.21092 21200 ft 385 kts 233°
2026-04-21 15:43 49.90533 -2.24151 21202 ft 385 kts 233°
2026-04-21 15:43 49.88762 -2.27229 21115 ft 378 kts 232°
2026-04-21 15:44 49.87027 -2.30242 20748 ft 372 kts 232°
2026-04-21 15:44 49.85316 -2.33208 20277 ft 367 kts 233°
2026-04-21 15:44 49.83621 -2.36151 19761 ft 365 kts 233°
2026-04-21 15:44 49.81938 -2.39075 19222 ft 362 kts 233°
2026-04-21 15:45 49.80267 -2.41980 18700 ft 360 kts 233°
2026-04-21 15:45 49.78612 -2.44860 18151 ft 357 kts 233°
2026-04-21 15:45 49.76971 -2.47708 17406 ft 352 kts 232°
2026-04-21 15:45 49.75345 -2.50515 16499 ft 348 kts 232°
2026-04-21 15:46 49.73733 -2.53291 15630 ft 345 kts 233°
2026-04-21 15:46 49.72052 -2.55918 14754 ft 345 kts 221°
2026-04-21 15:46 49.70052 -2.57885 13939 ft 345 kts 207°
2026-04-21 15:46 49.67814 -2.59234 12986 ft 344 kts 204°
2026-04-21 15:47 49.65801 -2.61133 12099 ft 339 kts 219°
2026-04-21 15:47 49.63967 -2.63407 11208 ft 336 kts 220°
2026-04-21 15:47 49.62182 -2.65713 10357 ft 334 kts 220°
2026-04-21 15:47 49.60423 -2.68036 9454 ft 332 kts 220°
2026-04-21 15:48 49.58690 -2.70384 8546 ft 331 kts 220°
2026-04-21 15:48 49.57010 -2.72787 7755 ft 328 kts 225°
2026-04-21 15:48 49.55560 -2.75432 7176 ft 319 kts 229°
2026-04-21 15:48 49.54197 -2.78073 6622 ft 312 kts 230°
2026-04-21 15:49 49.52877 -2.80694 6030 ft 308 kts 229°
2026-04-21 15:49 49.51606 -2.83305 5443 ft 303 kts 230°
2026-04-21 15:49 49.50596 -2.86144 4858 ft 301 kts 243°
2026-04-21 15:49 49.49736 -2.89058 4244 ft 296 kts 238°
2026-04-21 15:50 49.48424 -2.91380 3657 ft 283 kts 208°
2026-04-21 15:50 49.46677 -2.92464 3060 ft 264 kts 179°
2026-04-21 15:50 49.45005 -2.92084 2969 ft 225 kts 149°
2026-04-21 15:50 49.43806 -2.90872 2987 ft 191 kts 128°
2026-04-21 15:51 49.43074 -2.89295 3006 ft 179 kts 111°
2026-04-21 15:51 49.42743 -2.87490 3005 ft 175 kts 95°
2026-04-21 15:51 49.42759 -2.85617 3005 ft 175 kts 88°
2026-04-21 15:51 49.42816 -2.83744 3008 ft 175 kts 87°
2026-04-21 15:52 49.42872 -2.81868 2933 ft 175 kts 87°
2026-04-21 15:52 49.42925 -2.80073 2785 ft 161 kts 87°
2026-04-21 15:52 49.42958 -2.78950 2634 ft 156 kts 87°
2026-04-21 15:52 49.43006 -2.77311 2423 ft 153 kts 86°
2026-04-21 15:53 49.43054 -2.75696 2218 ft 150 kts 86°
2026-04-21 15:53 49.43099 -2.74129 2012 ft 141 kts 85°
2026-04-21 15:53 49.43140 -2.72696 1820 ft 127 kts 85°
2026-04-21 15:53 49.43177 -2.71398 1666 ft 118 kts 84°
2026-04-21 15:54 49.43213 -2.70155 1501 ft 115 kts 84°
2026-04-21 15:54 49.43248 -2.68938 1343 ft 113 kts 84°
2026-04-21 15:54 49.43283 -2.67734 1176 ft 114 kts 84°
2026-04-21 15:54 49.43315 -2.66499 1046 ft 115 kts 83°
2026-04-21 15:55 49.43345 -2.65254 870 ft 120 kts 83°
2026-04-21 15:55 49.43390 -2.63949 686 ft 117 kts 83°
2026-04-21 15:55 49.43424 -2.62712 521 ft 120 kts 83°
2026-04-21 15:55 49.43460 -2.61450 355 ft 117 kts 83°
2026-04-21 15:56 49.43491 -2.60334 316 ft 80 kts 86°
2026-04-21 15:56 49.43508 -2.59809 324 ft 39 kts 87°
2026-04-21 15:56 49.43520 -2.59414 332 ft 36 kts 87°
2026-04-21 15:56 49.43514 -2.59215 335 ft 4 kts 157°
2026-04-21 15:57 49.43468 -2.59209 334 ft 9 kts 176°
2026-04-21 15:57 49.43402 -2.59201 331 ft 10 kts 192°
2026-04-21 15:57 49.43371 -2.59310 332 ft 14 kts 266°
2026-04-21 15:57 49.43368 -2.59462 327 ft 11 kts 270°
2026-04-21 15:58 49.43363 -2.59598 328 ft 11 kts 265°
2026-04-21 15:58 49.43339 -2.59631 326 ft 6 kts 182°
2026-04-21 15:58 49.43307 -2.59625 327 ft 6 kts 178°
2026-04-21 15:58 49.43275 -2.59622 327 ft 1 kts 177°
2026-04-21 15:59 49.43260 -2.59621 327 ft 1 kts 177°